Flag for U.S.A. Weather past 2 weeks in Osage City, Kansas, U.S.A.

Now
67 °F

Sunny.


Feels Like: 67 °F
Forecast: 36 / 74 °F
Wind: 14 mph from Southwest

Location: Forbes Field

Current Time: Mar 30, 2015 at 12:21:42 PM

Latest Report: Mar 30, 2015 at 11:53 AM


Visibility: 10 mi

Pressure: 30.15 "Hg

Humidity: 24%

Dew point: 29 °F

Location of Osage CityLocation

Historic Weather in Osage City — Graph

°F

Osage City temperature yesterday

Maximum temperature yesterday: 72 °F (at 2:53 PM)
Minimum temperature yesterday: 41 °F (at 2:53 AM)
Average temperature yesterday: 53 °F

Past Weeks' High & Low Weather Summary

 TemperatureHumidityPressure
High86 °F (Mar 16, 2:53 PM)97% (Mar 25, 8:53 AM)30.37 "Hg (Mar 25, 8:53 AM)
Low30 °F (Mar 20, 6:02 AM)13% (Mar 15, 4:53 PM)29.79 "Hg (Mar 24, 2:53 PM)
Average50 °F61%30.09 "Hg
* Reported Mar 15 10:53 AM — Mar 30 10:53 AM, Osage City, Weather by CustomWeather, © 2015

Note: Actual official high and low records may vary slightly from our data, if they occured in-between our weather recording intervals... More about our weather records

Advertising

Osage City weather history for previous 24 hours

 ConditionsComfort  
Time TempWeatherWind HumidityBarometerVisibility
10:53 AM
Mon, Mar 30
63 °FSunny.13 mph34%30.16 "Hg10 mi
9:53 AM57 °FSunny.16 mph44%30.16 "Hg10 mi
8:53 AM48 °FSunny.9 mph61%30.17 "Hg10 mi
7:53 AM38 °FClear.5 mph76%30.19 "Hg10 mi
6:53 AM36 °FClear.No wind79%30.18 "Hg10 mi
5:53 AM33 °FClear.5 mph82%30.17 "Hg10 mi
4:53 AM34 °FClear.No wind85%30.16 "Hg10 mi
3:53 AM36 °FClear.No wind82%30.16 "Hg10 mi
2:53 AM37 °FClear.No wind79%30.18 "Hg10 mi
1:53 AM41 °FClear.No wind70%30.18 "Hg10 mi
12:53 AM41 °FClear.5 mph74%30.17 "Hg10 mi
11:53 PM
Sun, Mar 29
41 °FClear.3 mph70%30.17 "Hg10 mi
10:53 PM44 °FClear.No wind65%30.16 "Hg10 mi
9:53 PM47 °FClear.5 mph61%30.16 "Hg10 mi
8:53 PM54 °FClear.7 mph49%30.14 "Hg10 mi
7:53 PM58 °FSunny.8 mph44%30.11 "Hg10 mi
6:53 PM63 °FSunny.12 mph40%30.07 "Hg10 mi
5:53 PM66 °FSunny.20 mph37%30.03 "Hg10 mi
4:53 PM70 °FSunny.21 mph34%30.01 "Hg10 mi
3:53 PM71 °FPassing clouds.26 mph32%30.00 "Hg10 mi
2:53 PM72 °FSunny.23 mph30%29.99 "Hg10 mi
1:53 PM67 °FSunny.16 mph36%30.01 "Hg10 mi
12:53 PM67 °FSunny.17 mph37%30.00 "Hg10 mi
Weather by CustomWeather, © 2015

See weather overviewHow to use our weather pages